TimeEDT,TemperatureF,Dew PointF,Humidity,Sea Level PressureIn,VisibilityMPH,Wind Direction,Wind SpeedMPH,Gust SpeedMPH,PrecipitationIn,Events,Conditions,WindDirDegrees,DateUTC
12:51 AM,62.1,53.1,72,29.94,9.0,SW,4.6,-,N/A,,Scattered Clouds,220,2013-05-10 04:51:00
1:51 AM,62.1,53.1,72,29.93,9.0,SW,3.5,-,N/A,,Partly Cloudy,230,2013-05-10 05:51:00
2:51 AM,62.1,53.1,72,29.94,10.0,Calm,Calm,-,N/A,,Partly Cloudy,0,2013-05-10 06:51:00
3:51 AM,63.0,53.1,70,29.94,10.0,West,4.6,-,N/A,,Clear,280,2013-05-10 07:51:00
4:51 AM,61.0,53.1,75,29.95,10.0,Calm,Calm,-,N/A,,Clear,0,2013-05-10 08:51:00
5:51 AM,61.0,53.1,75,29.97,10.0,West,3.5,-,N/A,,Clear,260,2013-05-10 09:51:00
6:51 AM,62.1,53.1,72,29.98,10.0,Calm,Calm,-,N/A,,Partly Cloudy,0,2013-05-10 10:51:00
7:51 AM,64.0,54.0,70,29.99,10.0,WNW,4.6,-,N/A,,Partly Cloudy,290,2013-05-10 11:51:00
8:51 AM,64.9,54.0,68,29.99,10.0,NW,6.9,-,N/A,,Partly Cloudy,310,2013-05-10 12:51:00
9:51 AM,69.1,54.0,58,29.99,10.0,West,4.6,-,N/A,,Mostly Cloudy,270,2013-05-10 13:51:00
10:51 AM,73.0,53.1,49,29.98,10.0,Calm,Calm,-,N/A,,Mostly Cloudy,0,2013-05-10 14:51:00
11:51 AM,73.9,51.1,45,29.97,10.0,North,3.5,-,N/A,,Mostly Cloudy,350,2013-05-10 15:51:00
12:51 PM,75.9,50.0,40,29.96,10.0,Variable,3.5,-,N/A,,Mostly Cloudy,0,2013-05-10 16:51:00
1:51 PM,78.1,51.1,39,29.95,10.0,Variable,5.8,-,N/A,,Mostly Cloudy,0,2013-05-10 17:51:00
2:51 PM,80.1,52.0,38,29.95,10.0,SW,11.5,-,N/A,,Scattered Clouds,220,2013-05-10 18:51:00
3:14 PM,78.8,53.6,42,29.94,10.0,South,15.0,20.7,N/A,,Mostly Cloudy,170,2013-05-10 19:14:00
3:51 PM,75.0,53.1,46,29.94,10.0,South,17.3,-,N/A,,Mostly Cloudy,170,2013-05-10 19:51:00
4:51 PM,73.0,53.1,49,29.94,10.0,South,18.4,23.0,N/A,,Mostly Cloudy,170,2013-05-10 20:51:00
5:51 PM,70.0,54.0,57,29.94,10.0,South,12.7,-,N/A,,Mostly Cloudy,180,2013-05-10 21:51:00
6:51 PM,66.9,54.0,63,29.93,10.0,South,17.3,23.0,N/A,,Overcast,170,2013-05-10 22:51:00
7:51 PM,66.0,54.0,65,29.93,10.0,South,12.7,19.6,N/A,,Overcast,180,2013-05-10 23:51:00
8:51 PM,64.9,54.0,68,29.91,10.0,South,8.1,-,N/A,,Overcast,180,2013-05-11 00:51:00
9:51 PM,64.0,55.0,73,29.93,10.0,South,8.1,-,N/A,,Mostly Cloudy,170,2013-05-11 01:51:00
10:51 PM,64.0,55.0,73,29.91,10.0,Variable,4.6,-,N/A,,Mostly Cloudy,0,2013-05-11 02:51:00
11:51 PM,64.0,55.0,73,29.88,10.0,South,4.6,-,N/A,,Scattered Clouds,170,2013-05-11 03:51:00